Location: Caseificio
(44.7500°N, 11.0500°E)
Time: 23:51:50
(UTC+00:00)

Lacrosse 5 - Pass Details

Date: 26 May 2022
Orbit: 714 x 724 km, 57.0° (Epoch: 09 March)

Event Time Altitude Azimuth Distance (km) Brightness Sun altitude
Exits shadow 00:58:31 42° 196° (SSW) 1,019 2.1 -19.9°
Maximum altitude 01:00:04 64° 134° (SE) 798 1.9 -19.8°
Drops below altitude 10° 01:05:07 10° 53° (NE) 2,216 5.3 -19.3°
Sets 01:07:31 0° 51° (NE) 3,139 6.4 -19.1°
